Regional Weather Roundup
Issued by NWS

Home | Current Version | Previous Version | Graphics & Text | Print | Product List | Glossary On
Versions: 1 2 3 4 5 6 7 8 9 10 11 12 13 14 15 16 17 18 19 20 21 22 23 24 25 26 27 28 29 30 31 32 33 34 35 36 37 38 39 40 41 42 43 44 45 46 47 48 49 50
000
ASUS43 KDTX 300410
RWRMI
MICHIGAN HOURLY REGIONAL WEATHER ROUNDUP
NATIONAL WEATHER SERVICE DETROIT/PONTIAC MI
1100 PM EST THU JAN 29 2015

NOTE: "FAIR" INDICATES FEW OR NO CLOUDS BELOW 12,000 FEET WITH NO
SIGNIFICANT WEATHER AND/OR OBSTRUCTION TO VISIBILITY.

MIZ047>049-052>055-059>063-066>070-074>076-081>083-300500-
SOUTHEAST LOWER MICHIGAN

CITY           SKY/WX    TMP DP  RH WIND       PRES   REMARKS
ADRIAN         CLOUDY    31  21  66 N12G20    30.07R
ALMA           CLOUDY    23  15  69 NW16G26   30.13R
ANN ARBOR      CLOUDY    30  19  63 NW22G29   30.05R
BAD AXE        FLURRIES  25  20  83 NW15G22   30.00R
DETROIT CITY   CLOUDY    32  20  61 NW15G28   30.02R
DETROIT        CLOUDY    30  21  69 NW17G31   30.05R
FLINT          CLOUDY    29  18  63 NW20G25   30.05R
GROSSE ILE     CLOUDY    32  23  69 NW15G23   30.03R
HILLSDALE      FLURRIES  31  27  88 NW12G20   30.06R
HOWELL         CLOUDY    27  18  67 NW20G29   30.05R

CITY           SKY/WX    TMP DP  RH WIND       PRES   REMARKS
JACKSON        CLOUDY    29  22  75 NW14G20   30.07R
LAMBERTVILLE   CLOUDY    32  23  69 NW12      30.07R
LANSING        CLOUDY    27  18  69 NW16G32   30.11R
LAPEER         NOT AVBL
MASON          CLOUDY    28  18  68 NW20G28   30.08R
MONROE         CLOUDY    30  23  74 NW14      30.04R
MT. CLEMENS    CLOUDY    31  22  69 NW21G29   29.99R
PONTIAC        FLURRIES  28  19  69 NW17      30.01R
PORT HOPE        N/A     27  20  75 NW16G26   29.97R
PORT HURON     CLOUDY    30  23  74 W15G22    29.99R
TRI CITIES     CLOUDY    26  16  65 NW23G39   30.08R
YPSILANTI      CLOUDY    33  21  61 NW22G31   30.04R
$$
MIZ043>046-050>051-056>058-064>065-071>073-077>080-300500-
SOUTHWEST LOWER MICHIGAN

CITY           SKY/WX    TMP DP  RH WIND       PRES   REMARKS
BATTLE CREEK   FLURRIES  31  22  69 NW18G32   30.11R
BENTON HARBOR  LGT SNOW  29  24  82 NW10G26   30.20R
BIG RAPIDS     FLURRIES  22  17  79 NW9G21    30.15R
COLDWATER      CLOUDY    31  28  90 NW12      30.09R
HOLLAND        FLURRIES  29  19  66 N14G26    30.20R
GRAND RAPIDS   FLURRIES  27  18  69 NW23G32   30.16R
KALAMAZOO      CLOUDY    31  23  72 NW23G31   30.13R
MARSHALL       FLURRIES  29  24  82 N13G22    30.09R
MUSKEGON       LGT SNOW  26  15  63 N24G35    30.24R
$$
MIZ016>042-300500-
NORTHERN LOWER MICHIGAN

CITY           SKY/WX    TMP DP  RH WIND       PRES   REMARKS
ALPENA         LGT SNOW  17  11  77 NW18G26   30.06R
BEAVER ISLAND  FLURRIES  17  11  78 N12G18    30.21R
BELLAIRE       FLURRIES  20  11  68 NW13G21   30.18R
CADILLAC       LGT SNOW  20  15  79 NW22G29   30.10R
CHARLEVOIX     CLOUDY    18  11  75 N20G30    30.22R
FRANKFORT      FLURRIES  22  15  73 N17       30.23R
GAYLORD        FLURRIES  14   9  80 NW9G17    30.08R
GRAYLING       LGT SNOW  18  12  78 NW20G35   30.10R
HARBOR SPRINGS MOCLDY    15   7  71 NW16G24   30.16R WCI  -1
HOUGHTON LAKE  LGT SNOW  18  11  74 NW17G33   30.08R
MANISTEE       CLOUDY    23  12  63 N17G28    30.23R
OSCODA         FLURRIES  22  15  75 NW21G29   30.00R
PELLSTON       PTCLDY    14   7  73 NW23G31   30.17R WCI  -5
TRAVERSE CITY  CLOUDY    22  13  68 N21G31    30.18R
$$
MIZ007>008-015-300500-
EASTERN UPPER MICHIGAN

CITY           SKY/WX    TMP DP  RH WIND       PRES   REMARKS
KINROSS        PTCLDY     7   3  85 N21G26    30.15R WCI -13
MACKINAC ISLAN CLOUDY    12   6  74 N17G33    30.16R WCI  -5
NEWBERRY       CLOUDY    12   8  84 NW14G22   30.20R FOG     WCI  -3
S. S. MARIE    CLEAR      7  -3  64 N12G22    30.17R WCI  -8
$$
MIZ004>006-011>014-085-300500-
CENTRAL UPPER MICHIGAN

CITY           SKY/WX    TMP DP  RH WIND       PRES   REMARKS
MANISTIQUE     CLOUDY    17  13  84 N12       30.23R
ESCANABA       CLOUDY    18   7  62 NW10G17   30.30R
MENOMINEE      PTCLDY    19   9  63 N13G21    30.31R
SAWYER-GWINN   LGT SNOW  13   8  78 N15G22    30.26R WCI  -2
$$
MIZ001>003-009>011-084-300500-
WESTERN UPPER MICHIGAN

CITY           SKY/WX    TMP DP  RH WIND       PRES   REMARKS
IRON MOUNTAIN  CLOUDY    16   4  59 N21G29    30.29R WCI  -1
HOUGHTON       CLOUDY    12   3  67 N15G25    30.34R WCI  -4
COPPER HARBOR    N/A     16  10  77 NE22G35   30.36R WCI  -2
IRONWOOD       CLOUDY    16   9  73 N12G20    30.36R
$$

ABBREVIATIONS USED IN REMARKS
   TC - TEMPERATURE IN CELSIUS
  WCI - WIND CHILL INDEX
   HX - HEAT INDEX
  VSB - VISIBILITY




USA.gov is the U.S. government's official web portal to all federal, state and local government web resources and services.